Location: Cassano d�Adda
(45.5333°N, 9.5167°E)
Time: 05:38:59
(UTC+00:00)

Cosmos 407 Rocket - Pass Details

Date: 08 December 2019
Orbit: 743 x 787 km, 74.0° (Epoch: 26 January)

Event Time Altitude Azimuth Distance (km) Brightness Sun altitude
Rises 17:20:10 0° 172° (S) 3,185 6.8 -17.1°
Reaches altitude 10° 17:22:42 10° 163° (SSE) 2,271 5.9 -17.5°
Maximum altitude 17:27:14 33° 101° (E) 1,274 4.1 -18.3°
Enters shadow 17:27:34 32° 93° (E) 1,282 4.1 -18.3°
